FOX-1CLIFF (AO-95)

Last updated on Sun Jun 21 2026 00:03:20 GMT+0000 (Coordinated Universal Time)

1 43770U 18099N 26171.42028350 .00009032 00000+0 34569-3 0 9992 2 43770 97.4379 231.6550 0007644 345.3894 14.7122 15.26768122413714
UTC large
Height (km)
Speed (km/s)
/
Latitude / Longitude
Inclination (degrees)
Orbital Period (minutes)
Azimuth
Elevation
Range (km)
Doppler Factor

Next 0 passes for location: London (51.5072 / 0.1276)

No passes found over London.
FOX-1CLIFF (AO-95)